Check out our new BloomSky Weather System.

Active alerts

Galveston, TX
  Details for Galveston, TX Coastal Flood Advisory  +3 additional alerts
Houston, TX
  Details for Houston, TX Flash Flood Watch
Fort Bend, TX
  Details for Fort Bend, TX Flash Flood Watch


Thunder radar  blitzortung!


Rain radar more information rain snow radar


Visit our other weather sites:

Template documentation
and downloads

And another site



Weather Underground History page Text

Daily Summary for January 7, 2017 Units:  English    Metric   Both
« Previous Day
Next Day »
Daily Weekly Monthly Yearly Custom
  High: Low: Average:
Temperature: TemperatureF °F 20.1 °F 29.7 °F
Dew Point: DewpointF °F 14.0 °F 17.3 °F
Humidity: Humidity % 36 % 62 %
Wind Speed: WindSpeedMPH mph 0.0 mph 3 mph
Wind Gust: WindSpeedGustMPH mph - -
Wind:- - WNW
Pressure: PressureIn in 30.47 in -
Precipitation: 0.00 in    
Historical Graphs
 
 
Tabular Data for January 7, 2017
Time Temperature Dew Point Pressure Wind Wind Speed Wind Gust Humidity Rainfall Rate (Hourly)
TemperatureF °F DewpointF °F PressureIn in Calm     Humidity % HourlyPrecipIn in
00:01 26.1 °F 20.7 °F 30.47 in WNW 5.0 mph 13.0 mph 80 % 0.00 in
00:06 26.1 °F 20.5 °F 30.48 in NW 6.0 mph 13.0 mph 79 % 0.00 in
00:07 26.1 °F 20.5 °F 30.48 in NW 6.0 mph 13.0 mph 79 % 0.00 in
00:12 25.9 °F 19.9 °F 30.48 in North 4.0 mph 14.0 mph 78 % 0.00 in
00:17 25.9 °F 19.9 °F 30.48 in NNW 15.0 mph 15.0 mph 78 % 0.00 in
00:22 25.7 °F 19.6 °F 30.48 in NW 7.0 mph 15.0 mph 77 % 0.00 in
00:27 25.7 °F 19.6 °F 30.48 in NNW 7.0 mph 15.0 mph 77 % 0.00 in
00:32 25.5 °F 19.4 °F 30.48 in NW 4.0 mph 15.0 mph 77 % 0.00 in
00:37 25.5 °F 19.4 °F 30.49 in NW 8.0 mph 16.0 mph 77 % 0.00 in
00:42 25.3 °F 19.2 °F 30.49 in NE 9.0 mph 16.0 mph 77 % 0.00 in
00:47 25.3 °F 19.2 °F 30.49 in WNW 5.0 mph 16.0 mph 77 % 0.00 in
00:52 25.2 °F 18.7 °F 30.49 in West 10.0 mph 17.0 mph 76 % 0.00 in
00:57 25.0 °F 18.5 °F 30.49 in NW 1.0 mph 17.0 mph 76 % 0.00 in
01:02 24.8 °F 18.3 °F 30.50 in NNW 4.0 mph 17.0 mph 76 % 0.00 in
01:07 24.8 °F 18.3 °F 30.50 in WNW 5.0 mph 17.0 mph 76 % 0.00 in
01:12 24.6 °F 18.1 °F 30.50 in NW 5.0 mph 13.0 mph 76 % 0.00 in
01:17 24.6 °F 18.1 °F 30.50 in NW 4.0 mph 13.0 mph 76 % 0.00 in
01:22 24.4 °F 18.0 °F 30.51 in NNW 6.0 mph 13.0 mph 76 % 0.00 in
01:27 24.4 °F 18.0 °F 30.51 in NNW 4.0 mph 11.0 mph 76 % 0.00 in
01:32 24.4 °F 18.0 °F 30.51 in NNW 4.0 mph 12.0 mph 76 % 0.00 in
01:37 24.4 °F 18.3 °F 30.51 in NNW 4.0 mph 12.0 mph 77 % 0.00 in
01:42 24.4 °F 18.3 °F 30.51 in NW 4.0 mph 13.0 mph 77 % 0.00 in
01:47 24.3 °F 18.1 °F 30.51 in WSW 3.0 mph 13.0 mph 77 % 0.00 in
01:52 24.3 °F 18.3 °F 30.51 in NNW 4.0 mph 13.0 mph 78 % 0.00 in
01:57 24.3 °F 18.3 °F 30.51 in NNW 3.0 mph 12.0 mph 78 % 0.00 in
02:02 24.3 °F 18.3 °F 30.51 in NW 5.0 mph 12.0 mph 78 % 0.00 in
02:07 24.3 °F 18.7 °F 30.51 in NW 1.0 mph 12.0 mph 79 % 0.00 in
02:12 24.1 °F 18.5 °F 30.51 in West 3.0 mph 10.0 mph 79 % 0.00 in
02:17 24.1 °F 18.5 °F 30.51 in SW 2.0 mph 10.0 mph 79 % 0.00 in
02:22 23.9 °F 18.3 °F 30.51 in NW 6.0 mph 10.0 mph 79 % 0.00 in
02:27 23.7 °F 18.1 °F 30.51 in NNW 3.0 mph 11.0 mph 79 % 0.00 in
02:32 23.5 °F 18.0 °F 30.52 in NNW 3.0 mph 11.0 mph 79 % 0.00 in
02:37 23.5 °F 18.0 °F 30.52 in WNW 9.0 mph 11.0 mph 79 % 0.00 in
02:42 23.5 °F 18.0 °F 30.52 in NW 9.0 mph 14.0 mph 79 % 0.00 in
02:47 23.5 °F 18.0 °F 30.53 in NNW 6.0 mph 14.0 mph 79 % 0.00 in
02:52 23.4 °F 17.6 °F 30.53 in NW 5.0 mph 14.0 mph 78 % 0.00 in
02:57 23.2 °F 17.4 °F 30.53 in NNW 7.0 mph 11.0 mph 78 % 0.00 in
03:02 23.0 °F 17.2 °F 30.53 in NW 6.0 mph 13.0 mph 78 % 0.00 in
03:07 22.8 °F 17.1 °F 30.53 in NW 8.0 mph 13.0 mph 78 % 0.00 in
03:12 22.8 °F 17.1 °F 30.53 in NW 7.0 mph 13.0 mph 78 % 0.00 in
03:17 22.6 °F 16.9 °F 30.53 in NNW 6.0 mph 12.0 mph 78 % 0.00 in
03:23 22.6 °F 16.9 °F 30.54 in NNW 5.0 mph 13.0 mph 78 % 0.00 in
03:28 22.5 °F 16.7 °F 30.54 in NW 2.0 mph 13.0 mph 78 % 0.00 in
03:33 22.5 °F 16.9 °F 30.54 in NW 5.0 mph 13.0 mph 79 % 0.00 in
03:38 22.5 °F 16.9 °F 30.54 in NW 5.0 mph 12.0 mph 79 % 0.00 in
03:43 22.3 °F 16.7 °F 30.54 in West 7.0 mph 16.0 mph 79 % 0.00 in
03:48 22.3 °F 16.7 °F 30.55 in NW 6.0 mph 16.0 mph 79 % 0.00 in
03:53 22.3 °F 16.7 °F 30.55 in NW 10.0 mph 16.0 mph 79 % 0.00 in
03:58 22.3 °F 16.7 °F 30.55 in NW 4.0 mph 15.0 mph 79 % 0.00 in
04:03 22.1 °F 16.5 °F 30.55 in WNW 6.0 mph 15.0 mph 79 % 0.00 in
04:08 21.9 °F 16.7 °F 30.55 in NW 4.0 mph 11.0 mph 80 % 0.00 in
04:13 21.9 °F 16.3 °F 30.55 in NNW 1.0 mph 11.0 mph 79 % 0.00 in
04:18 21.7 °F 16.5 °F 30.56 in NW 3.0 mph 12.0 mph 80 % 0.00 in
04:23 21.7 °F 16.5 °F 30.56 in WNW 4.0 mph 12.0 mph 80 % 0.00 in
04:28 21.7 °F 16.5 °F 30.56 in NNW 2.0 mph 12.0 mph 80 % 0.00 in
04:33 21.7 °F 16.5 °F 30.56 in North 5.0 mph 11.0 mph 80 % 0.00 in
04:38 21.6 °F 16.3 °F 30.56 in NNW 8.0 mph 11.0 mph 80 % 0.00 in
04:43 21.6 °F 16.3 °F 30.57 in NW 6.0 mph 11.0 mph 80 % 0.00 in
04:48 21.6 °F 16.0 °F 30.57 in NW 5.0 mph 11.0 mph 79 % 0.00 in
04:53 21.6 °F 16.3 °F 30.58 in NNW 9.0 mph 10.0 mph 80 % 0.00 in
04:58 21.6 °F 16.3 °F 30.58 in SW 5.0 mph 10.0 mph 80 % 0.00 in
05:03 21.6 °F 16.0 °F 30.59 in NW 3.0 mph 10.0 mph 79 % 0.00 in
05:08 21.4 °F 15.8 °F 30.60 in North 2.0 mph 10.0 mph 79 % 0.00 in
05:13 21.4 °F 15.8 °F 30.60 in North 3.0 mph 9.0 mph 79 % 0.00 in
05:18 21.4 °F 15.8 °F 30.61 in NNW 3.0 mph 9.0 mph 79 % 0.00 in
05:23 21.2 °F 16.0 °F 30.61 in North 4.0 mph 9.0 mph 80 % 0.00 in
05:28 21.2 °F 16.0 °F 30.61 in NNW 2.0 mph 7.0 mph 80 % 0.00 in
05:33 21.0 °F 15.6 °F 30.61 in West 3.0 mph 7.0 mph 79 % 0.00 in
05:38 21.0 °F 15.6 °F 30.61 in NW 4.0 mph 8.0 mph 79 % 0.00 in
05:43 21.0 °F 15.6 °F 30.61 in NW 2.0 mph 8.0 mph 79 % 0.00 in
05:48 21.0 °F 15.6 °F 30.61 in NW 4.0 mph 12.0 mph 79 % 0.00 in
05:53 21.0 °F 15.3 °F 30.61 in NW 4.0 mph 12.0 mph 78 % 0.00 in
05:58 20.8 °F 15.1 °F 30.62 in NW 5.0 mph 12.0 mph 78 % 0.00 in
06:03 20.8 °F 15.1 °F 30.62 in NW 3.0 mph 10.0 mph 78 % 0.00 in
06:08 20.8 °F 14.7 °F 30.62 in WNW 3.0 mph 10.0 mph 77 % 0.00 in
06:13 20.8 °F 15.1 °F 30.62 in NW 1.0 mph 10.0 mph 78 % 0.00 in
06:23 20.7 °F 14.5 °F 30.63 in NNE 3.0 mph 9.0 mph 77 % 0.00 in
06:28 20.7 °F 14.5 °F 30.63 in WNW 6.0 mph 8.0 mph 77 % 0.00 in
06:33 20.7 °F 14.5 °F 30.63 in NW 3.0 mph 8.0 mph 77 % 0.00 in
06:38 20.7 °F 14.5 °F 30.64 in WNW 3.0 mph 7.0 mph 77 % 0.00 in
06:43 20.5 °F 14.4 °F 30.63 in NNW 1.0 mph 7.0 mph 77 % 0.00 in
06:48 20.5 °F 14.4 °F 30.64 in WNW 1.0 mph 7.0 mph 77 % 0.00 in
06:53 20.5 °F 14.4 °F 30.65 in NW 2.0 mph 6.0 mph 77 % 0.00 in
07:03 20.5 °F 14.4 °F 30.66 in NNW 2.0 mph 6.0 mph 77 % 0.00 in
07:08 20.3 °F 14.2 °F 30.66 in NNW 2.0 mph 6.0 mph 77 % 0.00 in
07:13 20.3 °F 14.2 °F 30.66 in WNW 1.0 mph 6.0 mph 77 % 0.00 in
07:18 20.1 °F 14.0 °F 30.66 in NW 1.0 mph 6.0 mph 77 % 0.00 in
07:23 20.1 °F 14.4 °F 30.67 in NW 1.0 mph 6.0 mph 78 % 0.00 in
07:28 20.1 °F 14.4 °F 30.67 in North 1.0 mph 5.0 mph 78 % 0.00 in
07:33 20.1 °F 14.4 °F 30.68 in NW 4.0 mph 4.0 mph 78 % 0.00 in
07:39 20.3 °F 14.2 °F 30.68 in NW 2.0 mph 6.0 mph 77 % 0.00 in
07:44 20.5 °F 14.4 °F 30.68 in NW 4.0 mph 6.0 mph 77 % 0.00 in
07:49 20.7 °F 14.4 °F 30.68 in NNW 2.0 mph 7.0 mph 76 % 0.00 in
07:53 20.8 °F 14.5 °F 30.69 in NW 3.0 mph 7.0 mph 76 % 0.00 in
07:59 21.0 °F 14.4 °F 30.69 in NW 1.0 mph 7.0 mph 75 % 0.00 in
08:04 21.4 °F 14.7 °F 30.69 in NNW 4.0 mph 7.0 mph 75 % 0.00 in
08:09 21.6 °F 14.9 °F 30.69 in NNW 6.0 mph 7.0 mph 75 % 0.00 in
08:14 21.7 °F 14.7 °F 30.70 in NNW 4.0 mph 7.0 mph 74 % 0.00 in
08:19 21.9 °F 14.9 °F 30.70 in NNW 4.0 mph 7.0 mph 74 % 0.00 in
08:24 22.3 °F 15.3 °F 30.71 in NW 4.0 mph 7.0 mph 74 % 0.00 in
08:29 22.5 °F 14.7 °F 30.71 in NW 4.0 mph 7.0 mph 72 % 0.00 in
08:34 22.6 °F 14.9 °F 30.71 in NW 5.0 mph 8.0 mph 72 % 0.00 in
08:39 22.8 °F 15.1 °F 30.72 in NW 2.0 mph 10.0 mph 72 % 0.00 in
08:44 23.4 °F 15.4 °F 30.72 in WNW 6.0 mph 10.0 mph 71 % 0.00 in
08:49 23.5 °F 15.3 °F 30.73 in West 3.0 mph 10.0 mph 70 % 0.00 in
08:54 23.5 °F 14.9 °F 30.73 in NNW 3.0 mph 8.0 mph 69 % 0.00 in
08:59 23.9 °F 15.6 °F 30.73 in NNW 5.0 mph 10.0 mph 70 % 0.00 in
09:04 24.3 °F 15.6 °F 30.73 in NW 4.0 mph 10.0 mph 69 % 0.00 in
09:09 24.4 °F 15.4 °F 30.73 in NW 3.0 mph 10.0 mph 68 % 0.00 in
09:14 24.6 °F 15.3 °F 30.73 in NW 2.0 mph 8.0 mph 67 % 0.00 in
09:19 25.2 °F 15.8 °F 30.73 in NW 3.0 mph 8.0 mph 67 % 0.00 in
09:24 25.5 °F 15.8 °F 30.73 in West 1.0 mph 8.0 mph 66 % 0.00 in
09:29 25.5 °F 15.4 °F 30.74 in NNW 3.0 mph 8.0 mph 65 % 0.00 in
09:34 26.1 °F 16.3 °F 30.75 in NNW 2.0 mph 7.0 mph 66 % 0.00 in
09:39 27.0 °F 16.7 °F 30.74 in ENE 4.0 mph 8.0 mph 65 % 0.00 in
09:44 27.1 °F 15.8 °F 30.75 in NW 4.0 mph 8.0 mph 62 % 0.00 in
09:49 27.0 °F 15.3 °F 30.75 in NW 3.0 mph 8.0 mph 61 % 0.00 in
09:54 26.8 °F 15.4 °F 30.75 in North 2.0 mph 8.0 mph 62 % 0.00 in
09:59 27.5 °F 16.9 °F 30.75 in West 3.0 mph 7.0 mph 64 % 0.00 in
10:04 27.3 °F 15.6 °F 30.75 in WNW 3.0 mph 7.0 mph 61 % 0.00 in
10:09 27.5 °F 16.2 °F 30.76 in WNW 1.0 mph 7.0 mph 62 % 0.00 in
10:14 28.0 °F 16.7 °F 30.76 in NNW 2.0 mph 7.0 mph 62 % 0.00 in
10:19 28.8 °F 16.7 °F 30.76 in NW 3.0 mph 9.0 mph 60 % 0.00 in
10:24 29.1 °F 16.2 °F 30.76 in NNW 2.0 mph 9.0 mph 58 % 0.00 in
10:29 28.9 °F 16.3 °F 30.76 in WSW 1.0 mph 9.0 mph 59 % 0.00 in
10:34 29.7 °F 17.1 °F 30.76 in Calm   8.0 mph 59 % 0.00 in
10:39 29.8 °F 16.5 °F 30.76 in WNW 1.0 mph 8.0 mph 57 % 0.00 in
10:44 30.0 °F 16.7 °F 30.76 in NW 3.0 mph 8.0 mph 57 % 0.00 in
10:49 30.4 °F 17.1 °F 30.75 in NW 3.0 mph 7.0 mph 57 % 0.00 in
10:54 30.9 °F 17.1 °F 30.75 in WNW 4.0 mph 7.0 mph 56 % 0.00 in
10:59 31.3 °F 17.4 °F 30.75 in NE 4.0 mph 6.0 mph 56 % 0.00 in
11:04 31.5 °F 17.2 °F 30.75 in West 4.0 mph 6.0 mph 55 % 0.00 in
11:09 31.6 °F 17.8 °F 30.75 in WNW 5.0 mph 8.0 mph 56 % 0.00 in
11:14 32.0 °F 17.2 °F 30.75 in NNW 2.0 mph 8.0 mph 54 % 0.00 in
11:24 32.4 °F 16.7 °F 30.74 in NNW 3.0 mph 9.0 mph 52 % 0.00 in
11:29 32.5 °F 17.2 °F 30.74 in NW 3.0 mph 9.0 mph 53 % 0.00 in
11:34 32.7 °F 17.1 °F 30.74 in WNW 8.0 mph 9.0 mph 52 % 0.00 in
11:39 32.7 °F 16.5 °F 30.73 in NW 6.0 mph 9.0 mph 51 % 0.00 in
11:44 33.1 °F 16.5 °F 30.72 in North 7.0 mph 9.0 mph 50 % 0.00 in
11:49 33.4 °F 15.8 °F 30.72 in North 3.0 mph 9.0 mph 48 % 0.00 in
11:54 34.2 °F 18.0 °F 30.72 in North 2.0 mph 9.0 mph 51 % 0.00 in
11:59 34.9 °F 17.6 °F 30.72 in Calm   9.0 mph 49 % 0.00 in
12:05 35.1 °F 17.4 °F 30.72 in NNW 6.0 mph 9.0 mph 48 % 0.00 in
12:10 35.1 °F 16.3 °F 30.72 in NW 3.0 mph 9.0 mph 46 % 0.00 in
12:15 35.1 °F 17.8 °F 30.71 in NNW 6.0 mph 10.0 mph 49 % 0.00 in
12:20 35.4 °F 17.2 °F 30.71 in NW 7.0 mph 10.0 mph 47 % 0.00 in
12:25 35.4 °F 16.7 °F 30.71 in NW 2.0 mph 10.0 mph 46 % 0.00 in
12:30 36.0 °F 16.7 °F 30.71 in NW 3.0 mph 9.0 mph 45 % 0.00 in
12:35 36.1 °F 16.9 °F 30.71 in NW 2.0 mph 8.0 mph 45 % 0.00 in
12:40 36.3 °F 17.6 °F 30.71 in NW 1.0 mph 8.0 mph 46 % 0.00 in
12:45 36.0 °F 15.6 °F 30.71 in NNW 4.0 mph 8.0 mph 43 % 0.00 in
12:50 36.7 °F 17.4 °F 30.71 in NNW 4.0 mph 7.0 mph 45 % 0.00 in
12:55 36.7 °F 17.4 °F 30.71 in West 1.0 mph 9.0 mph 45 % 0.00 in
13:00 36.9 °F 17.4 °F 30.70 in West 5.0 mph 12.0 mph 45 % 0.00 in
13:05 37.2 °F 16.7 °F 30.70 in NW 3.0 mph 12.0 mph 43 % 0.00 in
13:10 37.6 °F 17.1 °F 30.70 in WNW 4.0 mph 12.0 mph 43 % 0.00 in
13:15 37.8 °F 16.7 °F 30.70 in NW 4.0 mph 11.0 mph 42 % 0.00 in
13:20 37.8 °F 17.2 °F 30.70 in NNW 4.0 mph 11.0 mph 43 % 0.00 in
13:25 38.5 °F 18.5 °F 30.69 in NW 2.0 mph 11.0 mph 44 % 0.00 in
13:30 38.8 °F 17.8 °F 30.69 in NW 4.0 mph 11.0 mph 42 % 0.00 in
13:35 38.1 °F 17.6 °F 30.69 in North 4.0 mph 10.0 mph 43 % 0.00 in
13:40 38.3 °F 17.2 °F 30.69 in NW 1.0 mph 10.0 mph 42 % 0.00 in
13:45 38.5 °F 18.5 °F 30.69 in NW 2.0 mph 10.0 mph 44 % 0.00 in
13:50 39.0 °F 18.5 °F 30.69 in WNW 7.0 mph 10.0 mph 43 % 0.00 in
13:55 38.8 °F 18.3 °F 30.69 in NW 3.0 mph 12.0 mph 43 % 0.00 in
14:00 39.0 °F 17.8 °F 30.69 in NW 7.0 mph 12.0 mph 42 % 0.00 in
14:05 39.0 °F 18.5 °F 30.68 in North 10.0 mph 12.0 mph 43 % 0.00 in
14:10 39.7 °F 18.5 °F 30.68 in North 4.0 mph 12.0 mph 42 % 0.00 in
14:15 39.9 °F 18.1 °F 30.67 in NNW 3.0 mph 12.0 mph 41 % 0.00 in
14:20 40.1 °F 17.8 °F 30.68 in NW 6.0 mph 12.0 mph 40 % 0.00 in
14:25 39.4 °F 17.1 °F 30.67 in NW 7.0 mph 11.0 mph 40 % 0.00 in
14:30 39.4 °F 17.1 °F 30.67 in North 5.0 mph 11.0 mph 40 % 0.00 in
14:35 39.9 °F 17.6 °F 30.67 in NW 3.0 mph 11.0 mph 40 % 0.00 in
14:45 39.9 °F 16.9 °F 30.67 in NW 1.0 mph 12.0 mph 39 % 0.00 in
14:50 40.1 °F 17.8 °F 30.67 in NW 14.0 mph 14.0 mph 40 % 0.00 in
14:55 39.9 °F 17.6 °F 30.67 in NW 5.0 mph 14.0 mph 40 % 0.00 in
15:00 39.9 °F 16.9 °F 30.67 in NNW 7.0 mph 14.0 mph 39 % 0.00 in
15:05 40.3 °F 18.0 °F 30.67 in North 3.0 mph 14.0 mph 40 % 0.00 in
15:10 40.8 °F 18.3 °F 30.68 in NNW 3.0 mph 9.0 mph 40 % 0.00 in
15:15 40.8 °F 17.2 °F 30.68 in NNW 4.0 mph 10.0 mph 38 % 0.00 in
15:20 40.8 °F 17.2 °F 30.68 in NW 2.0 mph 10.0 mph 38 % 0.00 in
15:25 40.8 °F 17.2 °F 30.68 in NNW 3.0 mph 10.0 mph 38 % 0.00 in
15:30 41.4 °F 18.9 °F 30.68 in WNW 4.0 mph 10.0 mph 40 % 0.00 in
15:35 41.5 °F 17.8 °F 30.68 in North 2.0 mph 9.0 mph 38 % 0.00 in
15:40 41.4 °F 17.6 °F 30.68 in NNW 3.0 mph 9.0 mph 38 % 0.00 in
15:46 41.2 °F 17.4 °F 30.67 in NW 7.0 mph 9.0 mph 38 % 0.00 in
15:51 41.4 °F 17.6 °F 30.67 in NNW 1.0 mph 9.0 mph 38 % 0.00 in
15:56 41.5 °F 17.8 °F 30.67 in North 3.0 mph 8.0 mph 38 % 0.00 in
16:01 41.2 °F 16.9 °F 30.67 in NNE 10.0 mph 10.0 mph 37 % 0.00 in
16:06 41.2 °F 16.9 °F 30.67 in NNW 4.0 mph 10.0 mph 37 % 0.00 in
16:11 41.2 °F 16.9 °F 30.67 in NNW 3.0 mph 10.0 mph 37 % 0.00 in
16:16 41.2 °F 17.4 °F 30.67 in NW 3.0 mph 10.0 mph 38 % 0.00 in
16:21 41.4 °F 17.1 °F 30.67 in NW 2.0 mph 9.0 mph 37 % 0.00 in
16:26 41.4 °F 17.6 °F 30.67 in NNW 4.0 mph 9.0 mph 38 % 0.00 in
16:31 41.4 °F 17.6 °F 30.67 in Calm   9.0 mph 38 % 0.00 in
16:36 41.4 °F 17.1 °F 30.68 in WNW 3.0 mph 8.0 mph 37 % 0.00 in
16:41 41.2 °F 17.4 °F 30.68 in NNW 2.0 mph 8.0 mph 38 % 0.00 in
16:51 41.2 °F 16.2 °F 30.68 in Calm   8.0 mph 36 % 0.00 in
16:56 40.8 °F 16.5 °F 30.68 in NNW 2.0 mph 8.0 mph 37 % 0.00 in
17:01 40.8 °F 16.5 °F 30.68 in NNW 3.0 mph 8.0 mph 37 % 0.00 in
17:06 40.6 °F 16.3 °F 30.68 in North 5.0 mph 6.0 mph 37 % 0.00 in
17:11 40.5 °F 16.9 °F 30.69 in NW 3.0 mph 6.0 mph 38 % 0.00 in
17:17 40.1 °F 16.5 °F 30.69 in NNW 5.0 mph 6.0 mph 38 % 0.00 in
17:21 39.9 °F 16.3 °F 30.69 in NNE 1.0 mph 10.0 mph 38 % 0.00 in
17:27 39.6 °F 16.7 °F 30.69 in NW 4.0 mph 10.0 mph 39 % 0.00 in
17:32 39.4 °F 16.5 °F 30.69 in NNE 3.0 mph 10.0 mph 39 % 0.00 in
17:37 39.2 °F 16.9 °F 30.69 in NW 2.0 mph 6.0 mph 40 % 0.00 in
17:42 39.0 °F 16.7 °F 30.69 in NNW 2.0 mph 6.0 mph 40 % 0.00 in
17:47 38.7 °F 17.1 °F 30.69 in WNW 2.0 mph 6.0 mph 41 % 0.00 in
17:52 38.5 °F 17.4 °F 30.69 in NNW 1.0 mph 4.0 mph 42 % 0.00 in
17:57 38.3 °F 17.2 °F 30.69 in WNW 2.0 mph 4.0 mph 42 % 0.00 in
18:02 38.1 °F 17.1 °F 30.70 in NW 1.0 mph 4.0 mph 42 % 0.00 in
18:07 37.9 °F 17.4 °F 30.69 in Calm   4.0 mph 43 % 0.00 in
18:12 37.6 °F 17.6 °F 30.70 in Calm   4.0 mph 44 % 0.00 in
18:17 37.2 °F 17.8 °F 30.70 in Calm   4.0 mph 45 % 0.00 in
18:22 37.0 °F 17.6 °F 30.70 in Calm   2.0 mph 45 % 0.00 in
18:27 36.9 °F 18.0 °F 30.71 in NW 1.0 mph 2.0 mph 46 % 0.00 in
18:32 36.5 °F 17.6 °F 30.71 in Calm   2.0 mph 46 % 0.00 in
18:37 36.3 °F 17.6 °F 30.71 in Calm   2.0 mph 46 % 0.00 in
18:42 36.3 °F 18.0 °F 30.71 in Calm   1.0 mph 47 % 0.00 in
18:47 36.0 °F 18.1 °F 30.71 in Calm   1.0 mph 48 % 0.00 in
18:52 35.8 °F 18.5 °F 30.72 in Calm   1.0 mph 49 % 0.00 in
18:57 35.6 °F 18.3 °F 30.72 in Calm   1.0 mph 49 % 0.00 in
19:02 35.2 °F 18.0 °F 30.72 in Calm   1.0 mph 49 % 0.00 in
19:07 35.1 °F 18.3 °F 30.72 in Calm   1.0 mph 50 % 0.00 in
19:12 34.9 °F 18.5 °F 30.72 in Calm   1.0 mph 51 % 0.00 in
19:17 34.5 °F 18.3 °F 30.72 in Calm     51 % 0.00 in
19:22 34.5 °F 18.7 °F 30.72 in Calm   1.0 mph 52 % 0.00 in
19:27 34.3 °F 19.0 °F 30.73 in Calm   1.0 mph 53 % 0.00 in
19:32 34.0 °F 19.0 °F 30.72 in Calm   1.0 mph 54 % 0.00 in
19:37 34.0 °F 19.0 °F 30.73 in Calm     54 % 0.00 in
19:42 33.8 °F 18.9 °F 30.73 in Calm     54 % 0.00 in
19:47 33.6 °F 18.7 °F 30.73 in Calm   1.0 mph 54 % 0.00 in
19:52 33.4 °F 18.5 °F 30.73 in Calm   1.0 mph 54 % 0.00 in
19:57 33.3 °F 18.9 °F 30.73 in Calm   1.0 mph 55 % 0.00 in
20:02 33.1 °F 18.7 °F 30.73 in Calm   1.0 mph 55 % 0.00 in
20:07 33.1 °F 18.7 °F 30.74 in Calm   1.0 mph 55 % 0.00 in
20:12 33.3 °F 18.5 °F 30.74 in NNW 1.0 mph 1.0 mph 54 % 0.00 in
20:17 33.3 °F 18.5 °F 30.74 in WNW 1.0 mph 1.0 mph 54 % 0.00 in
20:22 33.3 °F 18.9 °F 30.74 in Calm   1.0 mph 55 % 0.00 in
20:27 33.3 °F 18.9 °F 30.74 in Calm   1.0 mph 55 % 0.00 in
20:32 33.1 °F 18.7 °F 30.74 in Calm   1.0 mph 55 % 0.00 in
20:37 32.7 °F 18.7 °F 30.74 in Calm   1.0 mph 56 % 0.00 in
20:42 32.5 °F 19.0 °F 30.74 in Calm   1.0 mph 57 % 0.00 in
20:47 32.4 °F 18.9 °F 30.74 in Calm     57 % 0.00 in
20:52 32.2 °F 18.7 °F 30.74 in Calm     57 % 0.00 in
20:57 31.6 °F 18.1 °F 30.74 in Calm     57 % 0.00 in
21:02 30.9 °F 18.3 °F 30.74 in Calm     59 % 0.00 in
21:07 30.7 °F 18.5 °F 30.74 in Calm     60 % 0.00 in
21:12 30.6 °F 18.3 °F 30.74 in Calm     60 % 0.00 in
21:17 30.2 °F 18.3 °F 30.74 in Calm     61 % 0.00 in
21:22 30.0 °F 19.0 °F 30.74 in Calm     63 % 0.00 in
21:27 30.0 °F 19.0 °F 30.74 in Calm     63 % 0.00 in
21:37 29.7 °F 19.0 °F 30.74 in Calm     64 % 0.00 in
21:42 29.1 °F 18.5 °F 30.75 in Calm     64 % 0.00 in
21:47 28.8 °F 18.9 °F 30.75 in Calm     66 % 0.00 in
21:52 28.8 °F 18.9 °F 30.75 in Calm     66 % 0.00 in
21:57 28.6 °F 18.7 °F 30.74 in Calm     66 % 0.00 in
22:02 28.2 °F 18.7 °F 30.74 in Calm     67 % 0.00 in
22:07 28.0 °F 19.2 °F 30.74 in Calm     69 % 0.00 in
22:17 28.2 °F 19.4 °F 30.75 in Calm     69 % 0.00 in
22:22 27.9 °F 19.0 °F 30.75 in Calm     69 % 0.00 in
22:32 27.9 °F 19.9 °F 30.76 in Calm     72 % 0.00 in
22:37 28.0 °F 20.8 °F 30.76 in Calm     74 % 0.00 in
22:42 28.0 °F 20.5 °F 30.76 in Calm     73 % 0.00 in
22:47 27.9 °F 20.3 °F 30.76 in Calm     73 % 0.00 in
22:52 27.5 °F 20.3 °F 30.76 in Calm     74 % 0.00 in
22:57 27.5 °F 21.0 °F 30.76 in Calm     76 % 0.00 in
23:02 27.5 °F 21.0 °F 30.76 in Calm     76 % 0.00 in
23:07 27.7 °F 21.0 °F 30.76 in Calm     76 % 0.00 in
23:12 27.5 °F 21.0 °F 30.76 in Calm     76 % 0.00 in
23:17 27.3 °F 20.8 °F 30.76 in Calm     76 % 0.00 in
23:22 27.1 °F 20.8 °F 30.76 in Calm     77 % 0.00 in
23:32 26.6 °F 20.3 °F 30.76 in Calm     77 % 0.00 in
23:37 26.4 °F 20.1 °F 30.76 in Calm     77 % 0.00 in
23:42 26.8 °F 21.2 °F 30.76 in Calm     79 % 0.00 in
23:52 26.2 °F 20.3 °F 30.76 in Calm     78 % 0.00 in
23:57 26.1 °F 20.5 °F 30.76 in Calm     79 % 0.00 in
Spring, Texas: Villages of Bridgestone
Compliments of Weather Underground - 3.25 mb

Script developed by  Jim McMurry - jmcmurry@mwt.net Adapted for the template by  Wim van der Kuil - Leuven-Template.eu

You find our weather info also at:

UK Metoffice

WeatherCloud

Weather Underground

Mid-South Weather Network

AWEKAS

Citizen Weather Observer Program (CWOP)

HAMweather, WeatherForYou, PWS Weather

Equipment we use:

Weather-station
Davis Vantage Vue

Weather-program
Meteohub

Weather-server
Debian 7.9 x86 (Guest)

Provider
DreamHost

Davis Vantage Vue

Meteohub

Debian 7.9 x86 (Guest)

DreamHost